Find SATURN

NORAD ID: 57174 Int'l Des: NNA 2023-091 Owner: KGTU Country: RU operational
LEOCIRCULARRETROGRADESSO

实时位置

正在加载3D地球...

关于 SATURN

正在加载描述...

即将过境

Passes for default location (London). Set your location on the main map for personalized predictions.

高度历史

Loading altitude history...

两行轨道根数

1 57174U 23091J 26106.24827878 .00002103 00000-0 12088-3 0 9998
2 57174 97.5120 160.2276 0013384 9.0411 351.1059 15.13515470154262
Epoch: Apr 16, 2026 • Age: 12 hours

当前状态

高度 542.8 km
速度 7.59 km/s
星下点 -55.43°S, 50.71°E
发射日期 Jun 27, 2023
运行时间 2.8 years
类型 other

技术详情

分类 Payload
质量 10.00 kg
干质量 10.00 kg
总质量 10.00 kg
长度 0.30 m
直径 0.20 m
跨度 0.30 m
形状 Box
制造商 KGTU
平台类型 Cubesat 6U
阶段状态 In Orbit
所有者/国家 KGTU/RU

Most Searched